Location: Cran-Gévrier
(45.9039°N, 6.1012°E)
Time: 11:27:54
(UTC+00:00)

S3M - Pass Details

Date: 09 February 2023
Orbit: 948 x 1005 km, 83.0° (Epoch: 20 March)

Event Time Altitude Azimuth Distance (km) Brightness Sun altitude
Rises 17:31:25 0° 165° (SSE) 3,719 7.0 -7.3°
Reaches altitude 10° 17:34:04 10° 159° (SSE) 2,772 6.3 -7.7°
Maximum altitude 17:40:02 44° 89° (E) 1,362 4.4 -8.8°
Drops below altitude 10° 17:45:59 10° 20° (NNE) 2,770 6.1 -9.8°
Sets 17:48:37 0° 14° (NNE) 3,716 6.8 -10.2°
